Location: Il Ritiro
(43.4167°N, 13.1333°E)
Time: 17:10:48
(UTC+00:00)

Cosmos 1328 Rocket - Pass Details

Date: 05 July 2020
Orbit: 601 x 627 km, 82.5° (Epoch: 10 August)

Event Time Altitude Azimuth Distance (km) Brightness Sun altitude
Rises 22:43:54 0° 352° (N) 2,864 8.4 -23.6°
Reaches altitude 10° 22:46:07 10° 352° (N) 1,955 7.2 -23.6°
Maximum altitude 22:50:27 87° 81° (E) 609 3.4 -23.7°
Enters shadow 22:50:27 87° 83° (E) 609 3.4 -23.7°
